Weather History for KBVN - March, 2013

Change the Weather History Date:

Tuesday, March 19, 2013

  Actual Average (KOFK) Record (KOFK)
Temperature  
Mean Temperature 34 °F 39 °F  
Max Temperature 50 °F 50 °F 82 °F (1921)
Min Temperature 18 °F 27 °F -10 °F (1923)
Degree Days  
Heating Degree Days 31 26  
Month to date heating degree days 570  
Since 1 July heating degree days 5663  
Cooling Degree Days 0 0  
Month to date cooling degree days 0  
Year to date cooling degree days 0  
Moisture  
Dew Point 16 °F    
Average Humidity 56    
Maximum Humidity 86    
Minimum Humidity 23    
Precipitation  
Precipitation 0.00 in 0.06 in 1.16 in (1982)
Month to date precipitation 0.93  
Year to date precipitation 2.28  
Snow  
Snow 0.00 in 0.20 in - ()
Month to date snowfall 3.3  
Since 1 July snowfall 26.1  
Snow Depth -    
Sea Level Pressure  
Sea Level Pressure 30.13 in    
Wind  
Wind Speed 6 mph (NNW)    
Max Wind Speed 24 mph    
Max Gust Speed 31 mph    
Visibility 10 miles    
Events      
T = Trace of Precipitation, MM = Missing Value Source: NWS Daily Summary

Daily Weather History Graph

Daily Weather History Graph

Search for Another Location

Airport or City:

Trip Planner

Search our weather history database for the weather conditions in past years. The results will help you decide how hot, cold, wet, or windy it might be!

Date:

Astronomy

Mar. 19, 2013 Rise Set
Actual Time 7:36 AM CDT 7:43 PM CDT
Civil Twilight 7:09 AM CDT 8:11 PM CDT
Nautical Twilight 6:36 AM CDT 8:43 PM CDT
Astronomical Twilight 6:03 AM CDT 9:17 PM CDT
Moon 12:23 PM CDT (3/19) 2:36 AM CDT (3/19)
Length of Visible Light 13h 02m
Length of Day
12h 06m
Waxing Crescent, 50% of the Moon is Illuminated
Mar 19
Waxing Crescent
Mar 19
First Quarter
Mar 27
Full
Apr 2
Last Quarter
Apr 10
New

Hourly Weather History & Observations

Time (CDT) Temp. Windchill Dew Point Humidity Pressure Visibility Wind Dir Wind Speed Gust Speed Precip Events Conditions
12:15 AM 27.5 °F 22.2 °F 14.9 °F 59% 30.03 in 10.0 mi NNW 4.6 mph - N/A   Clear
12:35 AM 28.0 °F - 14.7 °F 57% 30.03 in 10.0 mi Calm Calm - N/A   Clear
12:55 AM 26.4 °F - 17.6 °F 69% 30.03 in 10.0 mi Calm Calm - N/A   Clear
1:15 AM 25.7 °F - 18.3 °F 74% 30.04 in 10.0 mi Calm Calm - N/A   Clear
1:35 AM 25.5 °F - 18.3 °F 74% 30.04 in 10.0 mi Calm Calm - N/A   Clear
1:55 AM 25.9 °F - 16.9 °F 69% 30.05 in 10.0 mi Calm Calm - N/A   Clear
2:15 AM 25.9 °F - 16.3 °F 67% 30.05 in 10.0 mi Calm Calm - N/A   Clear
2:55 AM 22.8 °F - 15.1 °F 72% 30.05 in 10.0 mi Calm Calm - N/A   Clear
3:15 AM 20.8 °F - 16.5 °F 83% 30.05 in 10.0 mi Calm Calm - N/A   Clear
3:35 AM 22.6 °F - 15.8 °F 75% 30.05 in 10.0 mi Calm Calm - N/A   Clear
3:55 AM 21.0 °F - 15.1 °F 78% 30.03 in 10.0 mi Calm Calm - N/A   Clear
4:15 AM 21.2 °F - 16.2 °F 81% 30.04 in 10.0 mi Calm Calm - N/A   Clear
4:35 AM 19.8 °F - 15.4 °F 83% 30.04 in 10.0 mi Calm Calm - N/A   Clear
4:55 AM 18.7 °F - 14.5 °F 84% 30.05 in 10.0 mi Calm Calm - N/A   Clear
5:15 AM 18.7 °F - 14.0 °F 82% 30.04 in 10.0 mi Calm Calm - N/A   Clear
5:35 AM 18.7 °F - 14.0 °F 82% 30.04 in 10.0 mi Calm Calm - N/A   Clear
5:55 AM 18.1 °F - 14.5 °F 86% 30.05 in 10.0 mi Calm Calm - N/A   Clear
6:15 AM 20.1 °F - 15.6 °F 83% 30.04 in 10.0 mi Calm Calm - N/A   Clear
6:35 AM 19.6 °F - 15.6 °F 85% 30.05 in 10.0 mi Calm Calm - N/A   Clear
6:55 AM 19.4 °F - 15.8 °F 86% 30.06 in 10.0 mi Calm Calm - N/A   Clear
7:15 AM 19.9 °F - 16.3 °F 86% 30.06 in 10.0 mi Calm Calm - N/A   Clear
7:35 AM 19.9 °F - 16.2 °F 85% 30.07 in 10.0 mi Calm Calm - N/A   Clear
7:55 AM 19.9 °F - 16.3 °F 86% 30.07 in 10.0 mi Calm Calm - N/A   Clear
8:15 AM 21.2 °F - 17.2 °F 85% 30.08 in 10.0 mi Calm Calm - N/A   Clear
8:35 AM 22.5 °F - 16.9 °F 79% 30.09 in 10.0 mi Calm Calm - N/A   Clear
8:55 AM 24.1 °F - 17.6 °F 76% 30.10 in 10.0 mi Calm Calm - N/A   Clear
9:15 AM 26.1 °F 21.9 °F 18.0 °F 71% 30.10 in 10.0 mi SE 3.5 mph - N/A   Clear
9:35 AM 27.3 °F - 19.8 °F 73% 30.11 in 10.0 mi Calm Calm - N/A   Clear
9:55 AM 30.7 °F 24.9 °F 20.5 °F 66% 30.12 in 10.0 mi South 5.8 mph - N/A   Clear
10:15 AM 32.4 °F 26.0 °F 19.8 °F 60% 30.11 in 10.0 mi South 6.9 mph - N/A   Clear
10:35 AM 34.0 °F 28.0 °F 19.8 °F 56% 30.11 in 10.0 mi South 6.9 mph - N/A   Clear
10:55 AM 36.3 °F 30.8 °F 20.3 °F 52% 30.11 in 10.0 mi SSW 6.9 mph - N/A   Clear
11:15 AM 39.0 °F 32.8 °F 21.7 °F 50% 30.11 in 10.0 mi West 9.2 mph - N/A   Clear
11:35 AM 43.0 °F 38.8 °F 23.2 °F 46% 30.10 in 10.0 mi West 6.9 mph - N/A   Clear
11:55 AM 46.6 °F - 19.6 °F 34% 30.10 in 10.0 mi NW 12.7 mph 21.9 mph N/A   Clear
12:15 PM 47.1 °F - 18.7 °F 32% 30.10 in 10.0 mi NW 17.3 mph 23.0 mph N/A   Clear
12:35 PM 48.2 °F - 18.9 °F 31% 30.11 in 10.0 mi NW 19.6 mph 28.8 mph N/A   Clear
12:55 PM 48.4 °F - 18.0 °F 30% 30.11 in 10.0 mi NNW 17.3 mph 26.5 mph N/A   Scattered Clouds
1:15 PM 49.5 °F - 17.1 °F 28% 30.11 in 10.0 mi NW 17.3 mph 25.3 mph N/A   Scattered Clouds
1:35 PM 49.8 °F - 16.2 °F 26% 30.11 in 10.0 mi NW 20.7 mph 27.6 mph N/A   Scattered Clouds
1:55 PM 49.6 °F - 16.2 °F 26% 30.10 in 10.0 mi NW 19.6 mph 26.5 mph N/A   Mostly Cloudy
2:15 PM 48.6 °F - 16.7 °F 28% 30.10 in 10.0 mi NW 20.7 mph 25.3 mph N/A   Mostly Cloudy
2:35 PM 49.3 °F - 16.9 °F 28% 30.11 in 10.0 mi NW 17.3 mph 26.5 mph N/A   Mostly Cloudy
2:55 PM 49.6 °F - 17.2 °F 28% 30.11 in 10.0 mi NW 15.0 mph 28.8 mph N/A   Mostly Cloudy
3:15 PM 50.2 °F - 16.3 °F 26% 30.11 in 10.0 mi NNW 20.7 mph 31.1 mph N/A   Mostly Cloudy
3:35 PM 49.6 °F - 15.8 °F 26% 30.11 in 10.0 mi NNW 24.2 mph 29.9 mph N/A   Scattered Clouds
3:55 PM 49.5 °F - 15.8 °F 26% 30.11 in 10.0 mi NNW 15.0 mph 27.6 mph N/A   Mostly Cloudy
4:15 PM 48.6 °F - 15.8 °F 27% 30.12 in 10.0 mi NNW 23.0 mph 27.6 mph N/A   Scattered Clouds
4:35 PM 49.6 °F - 15.1 °F 25% 30.13 in 10.0 mi NNW 18.4 mph 27.6 mph N/A   Scattered Clouds
4:55 PM 47.5 °F - 14.9 °F 27% 30.13 in 10.0 mi NNW 18.4 mph 27.6 mph N/A   Scattered Clouds
5:15 PM 47.5 °F - 13.6 °F 26% 30.13 in 10.0 mi North 15.0 mph 27.6 mph N/A   Clear
5:35 PM 47.7 °F - 11.1 °F 23% 30.14 in 10.0 mi NNW 17.3 mph 26.5 mph N/A   Scattered Clouds
5:55 PM 47.8 °F - 11.3 °F 23% 30.15 in 10.0 mi NNW 18.4 mph 26.5 mph N/A   Clear
6:15 PM 46.2 °F 38.7 °F 10.6 °F 24% 30.16 in 10.0 mi NNW 19.6 mph 31.1 mph N/A   Clear
6:35 PM 45.5 °F 37.6 °F 10.8 °F 24% 30.17 in 10.0 mi NNW 20.7 mph 27.6 mph N/A   Clear
6:55 PM 43.7 °F 36.3 °F 11.8 °F 27% 30.18 in 10.0 mi North 16.1 mph 23.0 mph N/A   Clear
7:15 PM 41.9 °F 35.9 °F 9.9 °F 27% 30.19 in 10.0 mi North 10.4 mph 19.6 mph N/A   Clear
7:35 PM 40.3 °F 33.0 °F 11.1 °F 30% 30.20 in 10.0 mi North 12.7 mph 21.9 mph N/A   Clear
7:55 PM 38.5 °F 29.9 °F 12.4 °F 34% 30.21 in 10.0 mi North 15.0 mph 19.6 mph N/A   Clear
8:35 PM 35.4 °F 27.8 °F 14.4 °F 42% 30.23 in 10.0 mi North 10.4 mph - N/A   Scattered Clouds
8:55 PM 33.6 °F 25.0 °F 18.7 °F 54% 30.25 in 10.0 mi NNE 11.5 mph 16.1 mph N/A   Clear
9:15 PM 32.2 °F 23.8 °F 19.4 °F 59% 30.27 in 10.0 mi NNE 10.4 mph - N/A   Clear
9:35 PM 31.3 °F 21.6 °F 19.6 °F 62% 30.28 in 10.0 mi NNE 12.7 mph - N/A   Clear
9:55 PM 28.8 °F 20.2 °F 19.0 °F 67% 30.30 in 10.0 mi North 9.2 mph - N/A   Clear
10:15 PM 27.3 °F 19.1 °F 18.5 °F 69% 30.31 in 10.0 mi NNE 8.1 mph - N/A   Scattered Clouds
10:35 PM 26.6 °F 16.2 °F 17.8 °F 69% 30.32 in 10.0 mi North 11.5 mph - N/A   Scattered Clouds
10:55 PM 25.3 °F 16.0 °F 16.7 °F 70% 30.33 in 10.0 mi North 9.2 mph - N/A   Clear
11:15 PM 24.3 °F 13.3 °F 16.7 °F 73% 30.33 in 10.0 mi North 11.5 mph 16.1 mph N/A   Scattered Clouds
11:35 PM 23.4 °F 12.2 °F 15.6 °F 72% 30.34 in 10.0 mi North 11.5 mph 19.6 mph N/A   Scattered Clouds
11:55 PM 22.6 °F 11.3 °F 15.3 °F 73% 30.34 in 10.0 mi North 11.5 mph 17.3 mph N/A   Clear